Regional Weather Roundup
Issued by NWS

Home | Current Version | Previous Version | Graphics & Text | Print | Product List | Glossary On
Versions: 1 2 3 4 5 6 7 8 9 10 11 12 13 14 15 16 17 18 19 20 21 22 23 24 25 26 27 28 29 30 31 32 33 34 35 36 37 38 39 40 41 42 43 44 45 46 47 48 49 50
000
ASUS43 KBIS 301402
RWRND

NORTH DAKOTA REGIONAL WEATHER ROUNDUP
NATIONAL WEATHER SERVICE BISMARCK ND
900 AM CDT THU MAR 30 2017

NOTE: "FAIR" INDICATES FEW OR NO CLOUDS BELOW 12,000 FEET WITH NO
SIGNIFICANT WEATHER AND/OR OBSTRUCTIONS TO VISIBILITY.


NDZ001>003-009>011-017-301500-
NORTHWEST NORTH DAKOTA

CITY           SKY/WX    TMP DP  RH WIND       PRES   REMARKS
WILLISTON      CLOUDY    44  37  76 NE5       29.71F
MINOT          CLOUDY    46  35  65 S14       29.75S
$$

NDZ018>021-031>035-040>046-301500-
SOUTHWEST NORTH DAKOTA

CITY           SKY/WX    TMP DP  RH WIND       PRES   REMARKS
BISMARCK       FAIR      39  35  86 SE12      29.85S
DICKINSON      CLOUDY    41  37  86 S12       29.72S
GARRISON         N/A     40  34  79 S8        29.78S
HETTINGER ARPT CLOUDY    40  35  83 SE9       29.77F
$$

NDZ004>008-012>016-024-026-027-054-301500-
NORTHEAST NORTH DAKOTA

CITY           SKY/WX    TMP DP  RH WIND       PRES   REMARKS
GRAND FORKS    CLOUDY    41  37  86 S10       29.93S
GRND FRKS AFB  CLOUDY    43  35  75 S14       29.92S
DEVILS LAKE    PTSUNNY   39  35  86 S15       29.87S
$$

NDZ022-023-025-028>030-036>039-047>053-301500-
SOUTHEAST NORTH DAKOTA

CITY           SKY/WX    TMP DP  RH WIND       PRES   REMARKS
FARGO          SUNNY     38  35  89 CALM      29.95S FOG
JAMESTOWN      PTSUNNY   36  35  96 S12       29.89F
$$




USA.gov is the U.S. government's official web portal to all federal, state and local government web resources and services.